Inscriptos

1500 Electronico
Fecha Serie Viento Presión Humedad Temperatura
15-09-2018 Final_A
Andarivel Nombre Dia Mes Año Equipo Mejor Marca
Pensa Natalio Emmanuel 19 8 1989 QUIRO - 3.47.23
Ortiz Luis Carlos Antonio 18 3 1990 QUIRO - 3.54.69
Suarez Juan Cruz 27 12 1994 AAMTE - 3.55.99
Gutierrez Ivan 5 7 1990 PGARI - 3.55.99
Zavala Walter Hernan 28 1 1988 AAMTE - 3.55.99
Ruiz Antonio 13 9 1994 EMCDC - 3.57.04
Rodriguez Gonzalo Emanuel 13 1 1989 EMAPI - 3.58.99
Johnson Carlos Augusto 7 6 1997 VYR ASA 3.59.99
Vitarello Daniel 4 10 1992 CADAF - 4.00.25
Rosales Rodrigo Javier 5 1 1997 FTTAF - 4.00.99
Gauna Brian Miguel 15 2 1994 JMCOR FMARP 4.00.99
Villagra Denis Nahuel 29 5 1994 QUIRO - 4.01.23
Larroza Nahuel 18 5 1998 AAMTE - 4.01.99
Ocampo Lautaro 17 2 1998 VYR ASA 4.03.12
Salguero Fernando 10 5 1993 PGARI 4.03.99
Bouvet Leonardo 7 7 1992 ATERU ARDA 4.04.40
Lucas Leonardo Castro Rasgado 30 9 1994 DEFEN ASOCA 4.05.00
Santiago Augusto 24 12 1991 UNLPL APLAT 4.05.99
Anca Ricardo 24 9 1996 ALFLA AJUN 4.05.99
Velazquez Conrado Jonas 4 6 1991 EBFAM - 4.05.99
Benitez Gustavo 26 3 1998 ATERU ARDA 4.06.20
Toth Mauricio 5 9 2001 MFV - 4.07.85
Sosa Pablo Ezequiel 3 1 1986 UNLPL APLAT 4.09.99
Garcia Diego Adriel 7 11 1983 FCMAX - 4.10.99
Brian Alan Sasso 23 4 2000 MFV - 4.10.99
Arguilea Mauricio Erick 15 8 1999 FTTAF - 4.10.99
Paineo Emilio 3 2 1999 UAJGR - 4.10.99
Kucher Hernan 24 4 1993 LFA - 4.10.99
Perez Fabian Enzo 28 12 1994 AAY - 4.10.99
Romero Matias 24 11 2001 JMCOR FMARP 4.10.99
Russo Franco 30 7 1994 AAMTE - 4.10.99
Coronel Cristian 18 2 1997 CTSC - 4.11.61
Schnaider Federico 26 4 1997 ATERU ARDA 4.12.45
Holzmann Juan Pablo 2 2 1995 LCFAM - 4.12.99
Salazar Fernando Agustin 2 8 1997 CTSC - 4.14.55
Quiroga Facundo 14 05 2000 EMART AADV 4.14.99
Furno Ivan 16 6 1997 FCMAX - 4.14.99
Fairhurst Agosta Leonardo David 10 5 1993 CADAF - 4.15.22
Ullua Tomas 21 10 1996 ATERU ARDA 4.15.45
Perasso Walter Daniel 10 12 1994 ALFLA AJUN 4.15.99
Flores Paulo 1 4 2000 LFA - 4.15.99
Manfe Juan Manuel 26 11 1997 FTTAF - 4.15.99
Escobar Lautaro 9 6 2001 CEF61 - 4.18.41
Cordoba Joaquin 19 11 2001 JMCOR FMARP 4.18.99
Cilenti Kevin Maximiliano 6 10 1992 CASLA - 4.18.99
Sequeira Jonatan 4 4 1987 CASCM - 4.19.50
Fernandez Joaquin Ignacio 23 8 1991 LFA - 4.19.68
Espini Dario 19 7 1981 FCMAX - 4.20.99
Balda Santiago 19 4 2000 EMCDC - 4.20.99
Argaaraz Ballester Guillermo Miguel 16 3 1992 LFA - 4.20.99
Meza Juarez Ezequiel 15 6 2001 CADAF - 4.21.83
Lopez Lautaro Tadeo 11 7 1999 EMAPI - 4.21.99
Battaglini Juan 16 9 1995 EMA - 4.22.99
Mamblona Thiago 7 3 2001 EMA - 4.23.99
Jeremias Villalba 16 12 1995 EMA - 4.25.99
Villalba Gaston 18 2 1988 FCMAX - 4.25.99
Jorge Mullett 18 6 1992 FTTAF - 4.25.99
Domecq Sebastian 8 10 1996 AAY - 4.28.99
Veliz Nicolas 9 3 2000 MAB - 4.29.99
Bustos Sebastian 1 7 1999 JMCOR FMARP 4.30.99
Gonzalez Maffeo Maximiliano 24 6 1990 AAY - 4.30.99
Castillo Emanuel Daniel 12 1 2000 ADR - 4.30.99
Carrera Alan Gaston 8 7 1999 JMCOR FMARP 4.30.99
Scavino Ivan 7 12 1998 AAGAB - 4.31.07
Heffner Ignacio 10 8 1999 ASCC AABAR 4.31.24
Aguirre Helguero Sebastian 12 4 1984 EBFAM FAM 4.33.59
Ferreyra Joaquin 26 6 2000 CMDB1 - 4.33.99
Fernandez Emmanuel 13 6 1986 JMCOR FMARP 4.35.99
Martinez Elias 16 9 1994 AAMTE - 4.35.99
Facundo Emiliano Mino 5 5 1999 EMACO ASCER 4.35.99
arce fernando 10 9 1980 AAPCH - 4.39.99
Haran Anibal 20 10 1977 ALFLA AJUN 4.40.99
Ariel Carrascosa 5 4 1977 AAY - 4.40.99
Mariano Graziano 22 12 1989 NCAF - 4.40.99
Lema Lautaro Augusto 25 9 1990 MUAVE - 4.40.99
Talento Guillermo Ezequiel 27 12 1982 CACHI - 4.41.99
Gomez Echavarria Nicolas 21 8 1999 LCFAM - 4.45.99
Castro Pedro 23 10 1993 EBFAM - 4.49.41
Valerio Carlos 7 6 1974 LFA - 5.00.99
Sabate Juan Bernardo 30 4 1966 LFA - 5.00.99
Caragiulo Sebastian 30 11 1980 CADAF - 5.17.34
Santiago Corderas 18 4 1985 AAY - 5.99.99
Florentin Cristian 24 4 1982 AAY - 5.99.99
Singh Rene 23 11 1992 EMSAL CENTR 9.99.99